Location: Ferchesar
(52.6477°N, 12.4298°E)
Time: 12:59:05
(UTC+01:00)

AO-73 - Pass Details

Date: 28 October 2021
Orbit: 581 x 661 km, 97.6° (Epoch: 29 November)

Event Time Altitude Azimuth Distance (km) Brightness Sun altitude
Rises 07:11:51 0° 4° (N) 2,827 ? -7.8°
Reaches altitude 10° 07:14:21 10° 350° (N) 1,928 ? -7.4°
Maximum altitude 07:17:36 22° 299° (WNW) 1,307 ? -6.9°
Drops below altitude 10° 07:20:52 10° 248° (WSW) 1,945 ? -6.5°
Sets 07:23:24 0° 233° (SW) 2,857 ? -6.1°
